Regional Weather Roundup
Issued by NWS

Home | Current Version | Previous Version | Text Only | Print | Product List | Glossary On
Versions: 1 2 3 4 5 6 7 8 9 10 11 12 13 14 15 16 17 18 19 20 21 22 23 24 25 26 27 28 29 30 31 32 33 34 35 36 37 38 39 40 41 42 43 44 45 46 47 48 49 50
845
ASUS43 KMPX 231710
RWRMN
WEATHER ROUNDUP FOR MINNESOTA
NATIONAL WEATHER SERVICE TWIN CITIES/CHANHASSEN MN
1200 PM CDT SAT SEP 23 2017


NOTE: "FAIR" INDICATES FEW OR NO CLOUDS BELOW 12,000 FEET WITH NO
SIGNIFICANT WEATHER AND/OR OBSTRUCTIONS TO VISIBILITY. N/A MEANS
CURRENT SKY AND/OR WEATHER CONDITIONS ARE NOT AVAILABLE.

MNZ060>063-068>070-231800-
   Twin Cities Metro

CITY           SKY/WX    TMP DP  RH WIND       PRES   REMARKS
TWIN CITIES    MOSUNNY   84  70  62 S10       29.96S
ST PAUL        MOSUNNY   83  71  67 S8        29.96S
CRYSTAL        MOSUNNY   83  68  60 S9        29.94S
BLAINE         MOSUNNY   84  70  61 S10       29.95S
LAKEVILLE      SUNNY     81  70  69 S8        29.98S
EDEN PRAIRIE   MOSUNNY   83  70  64 S8        29.96S
SOUTH ST PAUL  MOSUNNY   83  68  59 S9        29.96F
LAKE ELMO      FAIR      82  72  69 S12       29.98F
$$
MNZ001>005-007-008-013>017-022>024-027-028-231800-
   Northwest Minnesota

CITY           SKY/WX    TMP DP  RH WIND       PRES   REMARKS
BEMIDJI        CLOUDY    53  52  95 NW6       30.02R
HALLOCK          N/A     57  50  77 NW16G22   30.04S
ROSEAU         CLOUDY    54  48  82 NW9       30.00S
WARROAD        CLOUDY    54  50  87 NW10      29.99S
THIEF RVR FALL CLOUDY    53  50  89 NW9       30.03R
CROOKSTON      CLOUDY    55  50  82 N12G17    30.04R
FOSSTON        CLOUDY    52  50  93 NW6       30.04R
DETROIT LAKES  RAIN      52  50  93 N7        30.01S
MOORHEAD       CLOUDY    54  48  82 N8        30.05R
PARK RAPIDS    LGT RAIN  56  53  90 NW7       30.00R
MAHNOMEN       CLOUDY    52  49  92 N7        30.04R
$$
MNZ006-009>011-018-025>026-231800-
   North Central Minnesota

CITY           SKY/WX    TMP DP  RH WIND       PRES   REMARKS
BAUDETTE       CLOUDY    55  54  96 NW8       29.98R
FLAG ISLAND    CLOUDY    54  52  94 NW13      29.97R
INTL FALLS     CLOUDY    59  55  87 NW8       29.95R
WASKISH        CLOUDY    55  54  94 W6        29.99R
BIG FORK       LGT RAIN  59  55  88 W6        29.98F
LONGVILLE      CLOUDY    61  57  88 CALM      29.99R
GRAND RAPIDS   CLOUDY    61  59  93 VRB6      30.00R
CRANE LAKE     CLOUDY    63  59  88 W5        29.99R
ORR            CLOUDY    61  55  82 W3        29.94R
COOK           CLOUDY    64  61  88 W9        29.97R
WALKER         LGT RAIN  55  54  95 W5        30.00S
$$
MNZ012-019>021-037-231800-
   Northeast Minnesota

CITY           SKY/WX    TMP DP  RH WIND       PRES   REMARKS
DULUTH         PTSUNNY   79  71  76 S8        29.94F
ELY            CLOUDY    72  64  78 SW7       29.93F
HIBBING        PTSUNNY   71  66  84 W7        29.97R
EVELETH        PTSUNNY   73  64  73 SW8       29.95S
DULUTH HARBOR  PTSUNNY   82  73  74 S9        29.92S
GRAND MARAIS     N/A     67  63  87 W5        29.92R
$$
MNZ029>031-032-039>041-046>048-054>057-064-231800-
   West Central Minnesota

CITY           SKY/WX    TMP DP  RH WIND       PRES   REMARKS
FERGUS FALLS   LGT RAIN  52  52 100 N3        30.04R
WHEATON        DRIZZLE   54  50  87 N6        30.05F
ALEXANDRIA     CLOUDY    61  58  90 NW6       30.02S
ELBOW LAKE     CLOUDY    54  53  97 NW7       30.04S
WADENA         CLOUDY    57  57 100 W7        30.01R
GLENWOOD       CLOUDY    64  61  88 NW6       30.01S
APPLETON       CLOUDY    61  54  77 NW8       30.00F
BENSON         CLOUDY    63  55  77 N6        30.02S
ORTONVILLE     CLOUDY    55  52  88 N12       30.03R
MADISON        CLOUDY    63  61  94 N7        30.01S
WILLMAR        FAIR      70  63  78 W8        30.01R
$$
MNZ033>034-036-042>043-049>051-058-059-231800-
   Central Minnesota

CITY           SKY/WX    TMP DP  RH WIND       PRES   REMARKS
ST CLOUD       MOSUNNY   81  71  71 SW8       29.96R
SAUK CENTRE    CLOUDY    65  62  89 NW3       30.00R
PAYNESVILLE    CLOUDY    75  66  72 W5        29.98S
AITKIN         PTSUNNY   72  64  78 W5        29.96R
PINE RIVER     CLOUDY    59  55  88 NW5       30.03R
BRAINERD       CLOUDY    64  62  93 W7        29.99R
STAPLES        CLOUDY    61  55  82 N6        30.00S
LITTLE FALLS   MOSUNNY   68  59  73 NW3       29.98S
LITCHFIELD     CLOUDY    79  70  73 CALM      29.97S
BUFFALO        MOSUNNY   80  68  67 S8        29.98R
MAPLE LAKE     MOSUNNY   80  71  75 S6        29.98R
HUTCHINSON     MOSUNNY   80  71  74 S6        29.98F
$$
MNZ037-044-045-052-053-231800-
   East Central Minnesota

CITY           SKY/WX    TMP DP  RH WIND       PRES   REMARKS
PRINCETON      MOSUNNY   84  72  65 S6        29.95S
MORA           PTSUNNY   77  68  73 SW9       29.97S
RUSH CITY      SUNNY     82  70  65 S7        29.95S
MOOSE LAKE     MOSUNNY   81  70  69 S7        29.92F
HINCKLEY       FAIR      81  72  74 S9        29.95S
CLOQUET        MOSUNNY   81  68  65 S8        29.95S
MCGREGOR       CLOUDY    79  68  69 W6        29.96R
$$
MNZ071>073-080-081-089-090-097-098-231800-
   Southwest Minnesota

CITY           SKY/WX    TMP DP  RH WIND       PRES   REMARKS
MONTEVIDEO     CLOUDY    64  63  94 N8        30.00F
GRANITE FALLS  CLOUDY    69  61  75 N5        30.00F
CANBY          CLOUDY    60  57  89 N6        30.02S
MARSHALL       CLOUDY    68  58  70 N7        29.98F
REDWOOD FALLS  CLOUDY    76  64  66 S3        29.96F
OLIVIA         CLOUDY    73  64  73 W6        29.97F
PIPESTONE      PTSUNNY   72  64  78 S9        29.97F
WORTHINGTON    CLOUDY    74  67  78 E6        29.98F
JACKSON        MOSUNNY   79  68  69 S6        29.99F
TRACY          PTSUNNY   73  66  76 SE7       29.98F
SLAYTON        CLOUDY    68  54  61 E5        30.00S
$$
MNZ065>067-074>077-082>085-091>093-231800-
   South Central Minnesota

CITY           SKY/WX    TMP DP  RH WIND       PRES   REMARKS
MANKATO        CLOUDY    80  71  74 SW6       29.99F
NEW ULM        CLOUDY    77  66  69 S10       29.97F
ST JAMES       MOSUNNY   81  68  65 SE5       29.98F
FARIBAULT      MOSUNNY   82  70  65 S6        30.00F
OWATONNA       MOSUNNY   84  70  61 S8        30.01S
WASECA         MOSUNNY   81  68  65 S10       30.01F
ALBERT LEA     SUNNY     86  72  62 S8        30.01F HX  92
$$
MNZ078>079-086>088-094>096-231800-
   Southeast Minnesota

CITY           SKY/WX    TMP DP  RH WIND       PRES   REMARKS
ROCHESTER      MOSUNNY   86  69  56 SW13      30.03S HX  90
RED WING       MOSUNNY   84  66  54 SW3       29.98S
STANTON        MOSUNNY   83  69  63 SW7       29.98S
DODGE CENTER   SUNNY     84  66  54 SW8       30.03R
WINONA         MOSUNNY   90  68  48 SW7       30.01S HX  93
AUSTIN         SUNNY     82  68  61 S12       30.02S
PRESTON        MOSUNNY   84  66  54 S14       30.04F
$$
ABBREVIATIONS USED IN REMARKS
   TC - TEMPERATURES IN CELSIUS
  WCI - WIND CHILL INDEX
   HX - HEAT INDEX
  VSB - VISIBILITY
$$




USA.gov is the U.S. government's official web portal to all federal, state and local government web resources and services.